Location: Dąbrowa Miętka
(51.3714°N, 18.6370°E)
Time: 21:07:31
(UTC+01:00)

ISS - Pass Details

Date: 27 January 2019
Orbit: 403 x 411 km, 51.6° (Epoch: 18 February)

Event Time Altitude Azimuth Distance (km) Brightness Sun altitude
Rises 18:22:39 0° 246° (WSW) 2,330 1.5 -18.0°
Reaches altitude 10° 18:24:44 10° 243° (WSW) 1,473 0.1 -18.4°
Maximum altitude 18:28:01 64° 162° (SSE) 460 -3.7 -18.9°
Enters shadow 18:28:11 62° 141° (SE) 466 -3.8 -18.9°
